Hourly Data Report for December 10, 2002

TORONTO CITY
ONTARIO

43°40'00.000" N
79°24'00.000" W
112.50 m
6158355
71508
XTO

Download Data

Hourly Data (December 2002)
Hourly Data Report for December 10, 2002
TIME
LST
Temp Definition
°C
Dew Point Definition
°C
Rel Hum Definition
%
Precip. Amount Definition
mm

Wind Dir Definition
10's deg

Wind Spd Definition
km/h
Visibility Definition
km
Stn Press Definition
kPa
Hmdx Definition


Wind Chill Definition


Weather Definition


00:00 -3.8 -8.0 73   LegendMM LegendMM LegendMM 100.89     LegendNANA
01:00 -3.5 -8.5 68   LegendMM LegendMM LegendMM 100.82     LegendNANA
02:00 -3.5 -8.8 67   LegendMM LegendMM LegendMM 100.84     LegendNANA
03:00 -3.3 -9.2 64   LegendMM LegendMM LegendMM 100.82     LegendNANA
04:00 -3.1 -9.2 63   LegendMM LegendMM LegendMM 100.81     LegendNANA
05:00 -2.9 -9.2 62   LegendMM LegendMM LegendMM 100.79     LegendNANA
06:00 -2.6 -9.0 61   LegendMM LegendMM LegendMM 100.81     LegendNANA
07:00 -2.3 -9.1 60   LegendMM LegendMM LegendMM 100.78     LegendNANA
08:00 -2.0 -8.4 62   LegendMM LegendMM LegendMM 100.86     LegendNANA
09:00 -1.9 -8.3 62   LegendMM LegendMM LegendMM 100.87     LegendNANA
10:00 -1.0 -7.7 60   LegendMM LegendMM LegendMM 100.89     LegendNANA
11:00 0.9 -6.7 57   LegendMM LegendMM LegendMM 100.88     LegendNANA
12:00 2.0 -6.2 55   LegendMM LegendMM LegendMM 100.78     LegendNANA
13:00 3.3 -6.0 50   LegendMM LegendMM LegendMM 100.72     LegendNANA
14:00 3.0 -5.0 56   LegendMM LegendMM LegendMM 100.69     LegendNANA
15:00 3.4 -3.7 60   LegendMM LegendMM LegendMM 100.63     LegendNANA
16:00 3.6 -3.3 61   LegendMM LegendMM LegendMM 100.67     LegendNANA
17:00 3.2 -3.0 64   LegendMM LegendMM LegendMM 100.69     LegendNANA
18:00 2.9 -4.0 60   LegendMM LegendMM LegendMM 100.69     LegendNANA
19:00 2.7 -0.8 78   LegendMM LegendMM LegendMM 100.67     LegendNANA
20:00 2.1 -1.8 75   LegendMM LegendMM LegendMM 100.64     LegendNANA
21:00 1.6 -2.3 75   LegendMM LegendMM LegendMM 100.63     LegendNANA
22:00 1.2 -2.1 79   LegendMM LegendMM LegendMM 100.67     LegendNANA
23:00 0.9 -2.1 80   LegendMM LegendMM LegendMM 100.70     LegendNANA

Notes on Data Quality.

Legend

  • E = Estimated
  • M = Missing
  • NA = Not Available*
  • [empty] = Indicates an unobserved value
Date modified: